Location: York
(53.9600°N, 1.0873°W)
Time: 07:42:28
(UTC+01:00)

ISS - Visible Passes

Search period start: 27 May 2019 00:00
Search period end: 06 June 2019 00:00
Orbit: 408 x 418 km, 51.6° (Epoch: 27 May)

Date Brightness Start Highest point End Pass type
(mag) Time Alt. Az. Time Alt. Az. Time Alt. Az.
27 May -1.6 00:49:00 10° WSW 00:50:01 14° WSW 00:50:01 14° WSW visible
27 May -3.5 22:22:20 10° W 22:25:36 50° SSW 22:28:52 10° ESE visible
27 May -2.3 23:59:12 10° W 00:01:50 21° SSW 00:02:08 21° SSW visible
28 May -2.6 23:09:35 10° W 23:12:32 28° SSW 23:14:15 18° SSE visible
29 May -3.0 22:20:03 10° W 22:23:10 36° SSW 22:26:17 10° SE visible
29 May -1.5 23:57:47 10° WSW 23:59:10 12° SW 23:59:13 12° SW visible
30 May -1.9 23:07:38 10° WSW 23:09:55 17° SW 23:11:23 13° S visible
31 May -2.2 22:17:53 10° W 22:20:36 23° SSW 22:23:20 10° SSE visible
02 Jun -1.4 22:16:09 10° WSW 22:17:52 13° SW 22:19:35 10° S visible
